Regional Weather Roundup
Issued by NWS

Home | Current Version | Previous Version | Graphics & Text | Print | Product List | Glossary On
Versions: 1 2 3 4 5 6 7 8 9 10 11 12 13 14 15 16 17 18 19 20 21 22 23 24 25 26 27
000
ASUS45 KCYS 220510
RWRWY

WYOMING REGIONAL WEATHER ROUNDUP
NATIONAL WEATHER SERVICE CHEYENNE WY
1100 PM MDT SUN MAY 21 2017

NOTE:  "FAIR" INDICATES FEW OR NO CLOUDS BELOW 12,000 FEET
WITH NO SIGNIFICANT WEATHER AND/OR OBSTRUCTIONS TO VISIBILITY.

WYZ001-220600-
YELLOWSTONE NATIONAL PARK

CITY           SKY/WX    TMP DP  RH WIND       PRES   REMARKS
LK YELLOWSTONE   N/A     31  27  85 NW3       30.36S
W YELLOWSTONE  NOT AVBL

$$
WYZ002>013-054>058-071-098>099-220600-
NORTHERN WYOMING

CITY           SKY/WX    TMP DP  RH WIND       PRES   REMARKS
JACKSON        FAIR      37  28  70 N7        30.30R WCI  32
CODY           NOT AVBL
GREYBULL       FAIR      52  30  43 W8        30.17S
WORLAND        FAIR      44  37  76 S6        30.19S
SHERIDAN       FAIR      44  36  73 S3        30.15F
BUFFALO        FAIR      45  31  58 SW9       30.20S
GILLETTE       FAIR      44  36  73 E3        30.16F
HULETT         FAIR      45  41  87 S8        30.14F
NEWCASTLE      FAIR      41  41 100 NE3       30.19S

$$
WYZ014>020-022>026-101>103-220600-
CENTRAL WYOMING

CITY           SKY/WX    TMP DP  RH WIND       PRES   REMARKS
BIG PINEY      FAIR      38  34  85 N5        30.34R WCI  34
PINEDALE       FAIR      37  34  87 CALM      30.34S
DUBOIS         FAIR      37  32  81 W6        30.31R WCI  33
LANDER         MOCLDY    49  36  61 SW10      30.26R
RIVERTON       FAIR      46  38  73 W5        30.26R
CASPER         FAIR      38  36  92 W5        30.25S WCI  34
DOUGLAS        CLOUDY    47  38  71 W6        30.24S

$$
WYZ021-027>030-104>119-220600-
SOUTHERN WYOMING

CITY           SKY/WX    TMP DP  RH WIND       PRES   REMARKS
EVANSTON       FAIR      44  36  73 SW5       30.32R
KEMMERER         N/A     43  36  75 E7G18     30.33R
FORT BRIDGER   FAIR      42  42  97 SE10      30.35S
ROCK SPRINGS   FAIR      44  35  70 S5        30.31R
DIXON            N/A     39  36  90 CALM      30.32S
RAWLINS        FAIR      38  34  85 N7        30.29S WCI  33
LARAMIE        FAIR      35  33  92 W6        30.28S WCI  30
CHEYENNE       CLOUDY    42  36  79 W8        30.26S
TORRINGTON     FAIR      47  43  86 NW5       30.19F
PINE BLUFFS    FAIR      41  41 100 W7        30.24R

$$




USA.gov is the U.S. government's official web portal to all federal, state and local government web resources and services.